Погода в Унгуркуй

Россия / Республика Бурятия     50°18′08″N   107°09′05″E
темп.,
°C
ветер,
м/с
пор.,
м/с
влажн.,
%
обл.,
%
осадки,
мм/ч
давл.,
гПа
погр.,
м
13 июня, вс
вс1323:00+11св2281100 0.0 100725
02:00+10ююз0082100 0.0 100710
05:00+10зюз1289100 0.4 100736
08:00+12зсз1192100 2.3 100687
11:00+15зсз2184100 0.3 1006414
14:00+20сз225544 0.3 10031240
17:00+20с355893 0.4 10031205
20:00+15ссв366263 0.4 1004245
14 июня, пн
пн1423:00+10с247965 0.0 100876
02:00+8с238357 0.0 100953
05:00+7ссв119029 0.0 100923
08:00+10ссв366851 0.1 1009490
11:00+15сз4455100 0.0 1008963
14:00+15зсз3354100 0.3 1007901
17:00+15юз2255100 0.1 1006989
20:00+13ююз117543 0.1 100623
15 июня, вт
вт1523:00+9в119336 0.1 100712
02:00+9ссз4992100 0.4 1009460
05:00+6ссз4119093 0.0 1013699
08:00+6с51087100 0.1 1015883
11:00+12с584333 0.3 10141751
14:00+13ссз563885 0.3 10142122
17:00+14ссз563363 0.0 10132408
20:00+11ссз36472 0.0 1014153
16 июня, ср
ср1623:00+6всв115782 0.0 101610
02:00+5в115924 0.0 101610
05:00+5с146776 0.0 1017140
08:00+10зсз36525 0.1 10161027
11:00+11сз585177 0.0 10151735
14:00+12ссз6955100 0.1 10141422
17:00+14ссз61054100 0.0 10131548
20:00+12с25604 0.0 1012186
17 июня, чт
чт1723:00+7всв11800 0.0 101412
02:00+6вюв1185100 0.0 101410
05:00+5юв2288100 0.0 101415
08:00+11ю226496 0.0 1012301
11:00+16ю1148100 0.0 10091060
14:00+15ссз2352100 0.1 10091625
17:00+12с367179 0.0 1010551
20:00+12сз366845 0.1 1010545